[[{"header":{"parameterUnit":"m.s-1","parameterCategory":1,"la1":30.2991,"la2":30.254,"lo1":-89.0895,"lo2":-89.0444,"dy":0.0017,"dx":0.0017,"nx":28,"ny":28,"refTime":"2025-12-25T03:00:00:Z","depth":0,"parameterNumber":2,"parameterNumberName":"U-component_of_WINDS"},"data":[0,0,0,0,0,0,0,0,0,0,0,0,0,0,0,0,0,0,0,0,0,0,0,0,0,0,0,0,0,0,0,0,0,0,0,0,0,0,0,0,0,0,0,0,0,0,0,0,0,0,0,0,0,0,0,0,0,0,1.0729,1.073,0,1.0809,1.081,1.0811,1.0819,1.0818,1.0817,1.0816,1.09,1.0903,1.0905,0,0,0,0,0,0,0,0,0,0,0,0,0,1.0585,1.0587,1.0729,1.073,1.0731,1.0809,1.081,1.0811,1.0819,1.0818,1.0817,1.0816,1.0899,1.0902,1.0906,0,0,0,0,0,0,0,0,0,0,0,0,0,1.0654,1.0588,1.0729,1.0744,1.0746,1.0809,1.081,1.0812,1.0819,1.0818,1.0816,1.0815,1.0897,1.0902,1.0906,1.096,0,0,1.092,1.0922,0,0,0,0,0,0,0,0,1.065,1.066,1.0741,1.0743,1.0746,1.0803,1.079,1.0861,1.0819,1.0791,1.0816,1.0815,1.0868,1.0875,1.0893,1.0963,1.0967,1.092,1.0923,1.0925,1.0926,0,0,0,0,0,0,0,1.0645,1.0656,1.0761,1.0742,1.0745,1.0748,1.0756,1.0803,1.0836,1.0794,1.0794,1.0804,1.087,1.0889,1.0895,1.0968,1.092,1.0924,1.0927,1.0929,1.1087,1.1088,0,0,0,0,0,0,1.0638,1.0652,1.0758,1.0763,1.0694,1.0751,1.0761,1.0786,1.0836,1.0842,1.0805,1.0804,1.0882,1.089,1.0898,1.0964,1.0925,1.0929,1.0932,1.1085,1.1087,1.1088,0,0,0,0,0,0,1.0634,1.0647,1.0755,1.0708,1.0722,1.0755,1.0783,1.0788,1.0807,1.0844,1.085,1.0818,1.0881,1.0892,1.0944,1.0967,1.0931,1.0935,1.1083,1.1086,1.1088,1.1095,0,0,0,0,0,0,1.063,1.0646,1.0666,1.0708,1.0724,1.0799,1.0784,1.079,1.0815,1.0814,1.0858,1.0864,1.0881,1.0937,1.0949,1.0972,1.0939,1.1081,1.1084,1.1087,1.1093,1.1098,1.1101,0,0,0,0,0,1.0625,1.0665,1.0667,1.068,1.075,1.0801,1.081,1.0828,1.0816,1.0837,1.0861,1.0863,1.0962,1.0943,1.0955,1.0981,1.108,1.1084,1.1087,1.1091,1.1097,1.1101,0,0,0,0,0,0,1.0625,1.0671,1.0673,1.0728,1.0761,1.0802,1.0829,1.0833,1.0869,1.0867,1.0888,1.0898,1.095,1.0971,1.0948,1.1035,1.102,1.1026,1.1019,1.1025,1.1029,1.1022,1.0943,0,0,0,0,0,1.0631,1.0668,1.0706,1.0751,1.0767,1.0795,1.0818,1.0829,1.0863,1.0877,1.0904,1.0938,1.0977,1.1002,1.104,1.1096,1.1106,1.112,1.1124,1.1127,1.1132,1.1164,1.1171,1.1099,1.1099,1.1099,0,0,1.0645,1.0675,1.0697,1.0752,1.0778,1.0816,1.0807,1.0847,1.0875,1.0883,1.0934,1.0955,1.0994,1.1049,1.1075,1.1068,1.1154,1.1132,1.1134,1.1137,1.1168,1.1175,1.1181,1.1102,1.1101,1.1101,0,0,1.0689,1.0715,1.0755,1.0782,1.0821,1.084,1.0849,1.089,1.0904,1.0956,1.0962,1.0997,1.1063,1.1091,1.1113,1.1168,1.1171,1.118,1.1201,1.1231,1.1237,1.1242,1.1262,1.1268,1.1185,1.1185,1.1185,0,1.0701,1.0758,1.0776,1.0816,1.084,1.0849,1.089,1.0915,1.0965,1.0982,1.0974,1.1057,1.1084,1.1145,1.1159,1.1177,1.1189,1.1175,1.1235,1.124,1.1245,1.1264,1.1271,1.1186,1.1186,1.1186,1.1185,0,1.0771,1.081,1.0838,1.0886,1.0913,1.0954,1.0978,1.1004,1.1013,1.1032,1.1084,1.1117,1.1161,1.1177,1.1186,1.124,1.1234,1.123,1.1216,1.1252,1.127,1.1278,1.1187,1.1187,1.1186,1.1186,0,0,1.0817,1.0874,1.0884,1.0906,1.095,1.0981,1.1022,1.1065,1.1087,1.1121,1.1157,1.1213,1.1209,1.1235,1.1247,1.1274,1.1315,1.1267,1.1268,1.1275,1.1377,1.1379,1.1387,1.1318,1.1319,1.132,1.1373,0,1.0866,1.0939,1.0956,1.1019,1.1056,1.1064,1.11,1.1131,1.115,1.1185,1.1206,1.1246,1.1238,1.1254,1.1281,1.1305,1.1336,1.1301,1.1351,1.1353,1.1341,1.1397,1.1399,1.1447,1.138,1.1382,1.1383,0,1.0933,1.0968,1.1034,1.1074,1.109,1.1122,1.1163,1.1195,1.1231,1.1243,1.1272,1.1282,1.1325,1.1309,1.1369,1.1345,1.1367,1.1381,1.1384,1.1389,1.1369,1.1403,1.1463,1.147,1.1394,1.1393,1.1392,0,1.096,1.1024,1.1072,1.109,1.1138,1.116,1.1181,1.1215,1.124,1.1276,1.1292,1.1333,1.1356,1.1387,1.1408,1.1394,1.1467,1.1452,1.1478,1.1478,1.1493,1.1492,1.1557,1.1507,1.1507,1.1507,1.1507,0,1.1013,1.1053,1.1085,1.1114,1.1159,1.1179,1.1223,1.1245,1.1275,1.1309,1.1319,1.1351,1.1376,1.1412,1.1428,1.1476,1.1486,1.1497,1.1501,1.1496,1.1495,1.151,1.1507,1.1509,1.1508,1.1508,1.1508,0,1.105,1.1073,1.1126,1.1166,1.1177,1.1209,1.1244,1.1273,1.1292,1.1335,1.1346,1.1377,1.1419,1.1443,1.1496,1.1507,1.156,1.1563,1.1548,1.1549,1.1574,1.1572,1.1652,1.1664,1.1606,1.1607,1.1607,0,1.1082,1.1113,1.1157,1.118,1.1201,1.1238,1.1264,1.1285,1.1311,1.1354,1.1378,1.142,1.1456,1.1523,1.155,1.1591,1.1594,1.162,1.16,1.1594,1.1594,1.1592,1.1595,1.1623,1.1623,1.1624,1.1624,0,1.1136,1.1146,1.1182,1.1222,1.1252,1.1284,1.1316,1.1335,1.1361,1.139,1.1433,1.146,1.1514,1.1557,1.1599,1.1622,1.1627,1.163,1.1638,1.1633,1.1623,1.1629,1.1557,1.1628,1.1627,1.1627,1.1627,1.1627,1.1172,1.12,1.1235,1.1274,1.1301,1.1331,1.136,1.1383,1.1419,1.1464,1.1475,1.152,1.1555,1.1614,1.1637,1.1673,1.1668,1.168,1.1683,1.1686,1.1686,1.1618,1.1681,1.1681,1.1681,1.1681,1.1681,0,1.1227,1.125,1.1286,1.133,1.1362,1.1364,1.14,1.1426,1.1465,1.1498,1.1532,1.1581,1.1622,1.1653,1.1695,1.1718,1.1722,1.1728,1.1727,1.1732,1.1688,1.1677,1.1725,1.1725,1.1725,1.1725,1.1725,1.1725,1.1259,1.1306,1.132,1.138,1.1403,1.1447,1.1467,1.1495,1.1521,1.1576,1.161,1.1629,1.1661,1.1705,1.1743,1.1751,1.1766,1.1772,1.1781,1.174,1.1735,1.173,1.1719,1.1776,1.1776,1.1821,1.1822,1.1822]},{"header":{"parameterUnit":"m.s-1","parameterCategory":1,"la1":30.2991,"la2":30.254,"lo1":-89.0895,"lo2":-89.0444,"dy":0.0017,"dx":0.0017,"nx":28,"ny":28,"refTime":"2025-12-25T03:00:00:Z","depth":0,"parameterNumber":3,"parameterNumberName":"V-component_of_WINDS"},"data":[0,0,0,0,0,0,0,0,0,0,0,0,0,0,0,0,0,0,0,0,0,0,0,0,0,0,0,0,0,0,0,0,0,0,0,0,0,0,0,0,0,0,0,0,0,0,0,0,0,0,0,0,0,0,0,0,0,0,0.4524,0.4524,0,0.4518,0.4518,0.4518,0.4533,0.4534,0.4534,0.4535,0.4526,0.4525,0.4525,0,0,0,0,0,0,0,0,0,0,0,0,0,0.4544,0.4544,0.4524,0.4524,0.4523,0.4518,0.4518,0.4518,0.4533,0.4534,0.4534,0.4535,0.4526,0.4526,0.4525,0,0,0,0,0,0,0,0,0,0,0,0,0,0.4536,0.4543,0.4524,0.453,0.4531,0.4518,0.4518,0.4518,0.4533,0.4534,0.4534,0.4535,0.4527,0.4526,0.4525,0.4504,0,0,0.4522,0.4521,0,0,0,0,0,0,0,0,0.4537,0.4536,0.4529,0.453,0.4531,0.4527,0.4522,0.4513,0.4533,0.4532,0.4535,0.4535,0.4526,0.4525,0.4522,0.4504,0.4503,0.4522,0.4521,0.452,0.452,0,0,0,0,0,0,0,0.4537,0.4536,0.4521,0.4529,0.453,0.4533,0.4532,0.4521,0.4525,0.4532,0.4533,0.4533,0.4526,0.4523,0.4522,0.4503,0.4522,0.4521,0.452,0.452,0.4466,0.4466,0,0,0,0,0,0,0.4537,0.4536,0.4522,0.4521,0.4536,0.4532,0.4531,0.4527,0.4525,0.4525,0.4532,0.4533,0.4524,0.4523,0.4522,0.4497,0.452,0.452,0.4519,0.4467,0.4466,0.4465,0,0,0,0,0,0,0.4538,0.4536,0.4522,0.4529,0.4527,0.4531,0.4526,0.4527,0.4524,0.4525,0.4525,0.4528,0.4525,0.4523,0.4508,0.4497,0.4519,0.4518,0.4468,0.4467,0.4466,0.4447,0,0,0,0,0,0,0.4538,0.4536,0.4529,0.4529,0.4527,0.4509,0.4525,0.4526,0.4523,0.4524,0.4522,0.4522,0.4525,0.451,0.4507,0.4496,0.4517,0.4469,0.4468,0.4466,0.4449,0.4445,0.4443,0,0,0,0,0,0.4539,0.4524,0.4529,0.4527,0.4519,0.4509,0.4508,0.4513,0.4522,0.4514,0.4514,0.4522,0.4499,0.4508,0.4506,0.4493,0.447,0.4468,0.4466,0.445,0.4446,0.4443,0,0,0,0,0,0,0.4522,0.4524,0.4529,0.4514,0.4511,0.4511,0.4502,0.4508,0.4502,0.4504,0.451,0.4509,0.4493,0.4492,0.4502,0.4473,0.4486,0.4483,0.4474,0.447,0.4467,0.4468,0.4517,0,0,0,0,0,0.4516,0.4509,0.4511,0.4497,0.4495,0.4499,0.4495,0.4499,0.4496,0.4495,0.4494,0.449,0.4482,0.4476,0.4469,0.4449,0.4448,0.4439,0.4436,0.4434,0.4431,0.4419,0.4415,0.4459,0.4459,0.4459,0,0,0.4504,0.4505,0.45,0.4493,0.4492,0.4483,0.4498,0.4488,0.4481,0.4493,0.4479,0.4478,0.4474,0.4456,0.4449,0.4455,0.4419,0.4431,0.4429,0.4428,0.4417,0.4413,0.4409,0.4458,0.4458,0.4459,0,0,0.4478,0.4478,0.4466,0.4464,0.4462,0.4464,0.4462,0.4461,0.4461,0.4447,0.4455,0.4447,0.4433,0.4429,0.4425,0.4397,0.4403,0.4395,0.4378,0.4367,0.4363,0.436,0.4349,0.4345,0.4392,0.4392,0.4392,0,0.4464,0.4452,0.4459,0.4449,0.4445,0.4456,0.4443,0.4441,0.4435,0.4432,0.444,0.4421,0.4419,0.4401,0.4394,0.4391,0.4386,0.4395,0.4363,0.436,0.4357,0.4347,0.4343,0.4391,0.4391,0.4391,0.4392,0,0.4434,0.4425,0.4415,0.4411,0.4406,0.4395,0.4399,0.4393,0.4397,0.4399,0.4384,0.4382,0.4373,0.4369,0.4373,0.4351,0.4354,0.4362,0.4375,0.4352,0.4342,0.4338,0.439,0.439,0.439,0.4391,0,0,0.4396,0.4396,0.4392,0.439,0.4388,0.4381,0.4369,0.4362,0.4356,0.4352,0.4342,0.4329,0.4336,0.4332,0.4336,0.4326,0.4302,0.4335,0.4334,0.4328,0.4275,0.4268,0.4264,0.4306,0.4305,0.4305,0.4275,0,0.437,0.4351,0.4357,0.4337,0.4329,0.4339,0.4328,0.4325,0.4326,0.4318,0.4318,0.4309,0.4319,0.4317,0.4307,0.4307,0.4291,0.4309,0.4295,0.4294,0.4295,0.4259,0.4252,0.4224,0.4271,0.4271,0.427,0,0.4337,0.4332,0.4312,0.4311,0.4307,0.4298,0.4291,0.4284,0.428,0.4281,0.4276,0.4281,0.4268,0.4282,0.4263,0.4275,0.427,0.4268,0.4267,0.4265,0.428,0.4255,0.4215,0.4211,0.4264,0.4265,0.4265,0,0.4311,0.4299,0.4285,0.4283,0.4282,0.4274,0.4273,0.427,0.4265,0.4259,0.4255,0.4247,0.4243,0.4236,0.4238,0.4248,0.4218,0.4232,0.4218,0.4218,0.4211,0.4211,0.4168,0.4208,0.4208,0.4209,0.4209,0,0.428,0.4267,0.4273,0.4265,0.425,0.4256,0.4241,0.4241,0.4238,0.4228,0.4236,0.4227,0.4231,0.4221,0.4223,0.4207,0.4205,0.4204,0.4205,0.4203,0.4203,0.4199,0.42,0.4207,0.4208,0.4208,0.4208,0,0.4248,0.4252,0.4237,0.4237,0.4237,0.4226,0.4225,0.4216,0.4217,0.4205,0.4202,0.4204,0.4193,0.4195,0.4183,0.4184,0.4163,0.4166,0.4164,0.4165,0.415,0.4151,0.4102,0.4096,0.4141,0.4141,0.414,0,0.4228,0.4218,0.4217,0.4212,0.421,0.4202,0.4197,0.4202,0.4196,0.419,0.4182,0.4172,0.4164,0.4146,0.4145,0.4136,0.4138,0.4122,0.4137,0.4135,0.4136,0.4137,0.4135,0.4119,0.4118,0.4118,0.4117,0,0.4192,0.4194,0.4187,0.4181,0.4175,0.417,0.4165,0.416,0.4165,0.4157,0.4147,0.4141,0.4129,0.4118,0.4109,0.4106,0.4112,0.4113,0.4109,0.4106,0.4105,0.4105,0.4155,0.4114,0.4114,0.4114,0.4115,0.4115,0.4165,0.4156,0.4154,0.4145,0.4143,0.4138,0.413,0.413,0.4122,0.4113,0.4116,0.4104,0.4099,0.4087,0.4083,0.4073,0.4078,0.4073,0.4071,0.4069,0.4067,0.4108,0.4071,0.4071,0.4071,0.4071,0.4071,0,0.4128,0.4127,0.4119,0.4113,0.4106,0.4113,0.4108,0.4102,0.4091,0.4087,0.4079,0.4066,0.4056,0.4054,0.4044,0.4035,0.4037,0.4032,0.4032,0.4031,0.4063,0.4067,0.4031,0.4031,0.4031,0.4031,0.4031,0.4031,0.4108,0.4094,0.4096,0.4079,0.4078,0.4067,0.4063,0.4058,0.4055,0.404,0.4032,0.4032,0.4028,0.4017,0.4007,0.4007,0.4002,0.3995,0.3996,0.4025,0.4029,0.4033,0.4037,0.3995,0.3995,0.3965,0.3965,0.3964]}]]